User: anonymous   Login
Location: Unspecified
(0.0000°N, 0.0000°E)
Time: 07:45:55
(UTC+00:00)
Language:

Sunsat (SO-35) - Orbit

View from above orbital plane
View from above orbital plane
View from above satellite
View from above satellite

Ground track
Ground track

The orbit data is extracted from the following two-line orbital elements,

1 25636U 99008C   20336.60930018  .00000051  00000-0  21444-4 0  9994
2 25636  96.4650 300.1542 0143825 274.6558  83.8225 14.44734624146928
Epoch (UTC): 01 December 2020 14:37:23
Eccentricity: 0.0143825
inclination: 96.4650°
perigee height: 640 km
apogee height: 845 km
right ascension of ascending node: 300.1542°
argument of perigee: 274.6558°
revolutions per day: 14.44734624
mean anomaly at epoch: 83.8225°
orbit number at epoch: 14692

The dashed part of the orbit path shows where the satellite is in the earth's shadow,  

DLR